SCP
0 0 0 0 0 0 0 0 0 0 0 0 0 0 0 0 0 0 0 0 0 0 0 0 0 0 0 0 0 0 0 0 0 0 0 0 0 0
0 0 0 0 0 0 0 0 0 0 0 0 0 0 0 0 0 0 0 0 0 0 0 0 0 0 0 0 0 0 0 0 0 0 0 0 0 0
0 0 0 0 0 0 0 0 0 0 0 0 0 0 0 0 0 0 0 0 0 0 0 0 0 0 0 0 0 0 0 0 0 0 0 0 0 0
0 0 0 0 0 0 0 0 0 0 0 0 0 0 0 0 0 0 0 0 0 0 0 0 0 0 0 0 0 0 0 0 0 0 0 0 0 0
0 0 0 0 0 0 0 0 0 0 0 0 0 0 0 0 0 0 0 0 0 0 0 0 0 0 0 0 0 0 0 0 0 0 0 0 0 0
0 0 0 0 0 0 0 0 0 0 0 0 0 0 0 0 0 0 0 0 0 0 0 0 0 0 0 0 0 0 0 0 0 0 -0 -0 0 0
0 0 0 0 0 0 0 0 0 0 0 0 0 0 0 0 0 0 0 0 0 0 0 0 0 0 0 0 0 0 0 0 0 0 0 0 0 0
0 0 0 0 0 0 0 0 0 0 0 0 0 0 0 0 0 0 0 0 0 0 0 0 0 0 0 0 0 0 0 0 0 0 0 0 0 0
0 0 0 0 0 0 0 0 0 0 0 0 0 0 0 0 0 0 0 0 0 0 0 0 0 0 0 0 0 0 0 0 0 0 0 0 0 0
0 0 0 0 0 0 0 0 0 0 0 0 0 0 0 0 0 0 0 0 0 0 0 0 0 0 0 0 0 0 0 0 0 0 0 0 0 0
0 0 0 0 0 0 0 0 0 0 0 0 0 0 0 0 0 0 0 0 0 0 0 0 0 0 0 0 0 0 0 0 0 0 0 0 0 0
0 0 0 0 0 0 0 0 0 0 0 0 0 0 0 0 0 0 0 0 0 0 0 0 0 0 0 0 0 0 0 0 0 0 0 0 0 0
0 0 0 0 0 0 0 0 0 0 0 0 0 0 0 0 0 0 0 0 0 0 0 0 0 0 0 0 0 0 0 0 0 0 0 0 0 0
0 0 0 0 0 0 0 0 0 0 0 0 0 0 0 0 0 0 0 0 0 0 0 0 0 0 0 0 0 0 0 0 0 0 0 0 0 0
0 0 0 0 0 0 0 0 0 0 0 0 0 0 0 0 0 0 0 0 0 0 0 0 0 0 0 0 0 0 0 0 -0 -0 -0 0 0 0
0 0 0 0 0 0 0 0 0 0 0 0 0 0 0 0 0 0 0 0 0 0 0 0 0 0 0 0 0 0 0 0 -0 -0 -0 0 0 0
0 0 0 0 0 0 0 0 0 0 0 0 0 0 0 0 0 0 0 0 0 0 0 0 0 0 0 0 0 0 0 0 -0 -0 -0 0 0 0
0 0 0 0 0 0 0 0 0 0 0 0 0 0 0 0 0 0 0 0 0 0 0 0 0 0 0 0 0 0 0 0 0 0 0 0 0 0
0 0 0 0 0 0 0 0 0 0 0 0 0 0 0 0 0 0 0 0 0 0 0 0 0 0 0 0 0 0 0 0 0 0 0 0 0 0
0 0 0 0 0 0 0 0 0 0 0 0 0 0 0 0 0 0 0 0 0 0 0 0 0 0 0 0 0 0 0 0 0 0 0 0 0 0
0 0 0 0 0 0 0 0 0 0 0 0 0 0 0 0 0 0 0 0 0 0 0 0 0 0 0 0 0 0 0 0 0 0 0 0 0 0
0 0 0 0 0 0 0 0 0 0 0 0 0 0 0 0 0 0 0 0 0 0 0 0 0 0 0 0 0 0 0 0 0 0 0 0 0 0
0 0 0 0 0 0 0 0 0 0 0 0 0 0 0 0 0 0 0 0 0 0 0 0 0 0 0 0 0 0 0 0 0 0 0 0 0 0
Wind_Speed
1 1 1 1 1 0 0 0 0 1 1 2 1 2 2 2 6 4 4 7 8 8 7 6 6 5 4 4 4 4 3 3 3 3 3 3 3 3
1 1 1 1 1 1 1 1 1 1 1 1 1 2 2 2 5 3 4 8 8 9 9 8 7 7 6 6 5 4 4 4 3 3 3 4 4 4
2 2 2 1 1 1 1 0 0 0 1 1 1 1 2 2 2 3 4 5 5 10 10 10 9 9 8 7 7 6 5 5 5 4 4 4 5 5
3 2 2 2 1 1 1 1 1 1 1 2 1 1 2 3 4 4 4 4 4 8 11 11 11 11 10 9 9 8 7 6 6 6 6 5 5 5
2 3 3 2 2 2 2 1 1 1 1 1 2 1 2 2 2 3 3 2 4 6 9 11 12 11 11 11 10 9 8 8 7 7 7 7 6 6
3 3 3 3 3 2 2 2 1 1 1 2 2 1 1 1 2 2 2 2 3 3 4 6 9 11 12 11 11 11 10 9 8 8 8 8 8 8
3 2 3 3 3 3 3 1 1 1 2 2 2 1 1 1 1 2 1 2 2 2 2 3 4 5 6 9 11 12 11 10 10 9 8 8 8 8
3 2 3 4 4 4 3 3 3 3 3 2 2 2 2 1 1 1 1 1 2 1 1 3 2 4 5 6 10 13 13 12 11 10 10 9 9 9
3 3 4 3 4 3 4 5 5 7 7 4 4 3 3 2 1 2 2 2 3 2 2 3 2 3 3 4 11 13 12 12 12 11 10 10 9 9
4 4 4 3 2 2 2 3 4 4 5 5 4 4 3 2 2 3 3 3 3 3 2 3 2 2 2 2 9 11 11 12 11 11 10 10 10 10
5 5 4 4 4 3 3 3 3 3 3 3 4 5 5 4 3 1 3 2 3 2 1 2 2 2 2 2 4 9 10 11 10 10 10 10 10 8
4 4 5 5 6 6 4 3 4 3 2 2 3 4 5 6 7 5 4 3 3 2 1 1 2 1 2 2 1 3 4 7 10 10 10 10 9 5
3 3 4 8 8 7 6 4 4 3 2 3 3 4 4 3 4 5 5 4 3 3 1 1 1 1 2 2 2 2 3 3 4 5 9 10 10 7
3 2 2 7 8 8 6 6 4 3 3 3 4 4 3 3 3 4 5 5 4 4 3 2 2 2 2 2 2 2 2 2 3 3 4 6 9 10
2 1 2 6 6 6 8 7 5 4 4 4 4 3 3 3 3 3 4 4 4 4 4 4 3 3 3 3 3 2 2 2 2 2 2 3 3 4
4 3 5 7 6 5 4 5 5 5 5 4 3 3 2 2 3 3 3 3 3 3 4 4 4 4 3 4 3 3 2 2 2 2 2 2 3 4
2 3 3 3 4 5 4 5 5 5 5 4 4 3 2 2 2 2 3 3 3 3 3 2 3 4 4 3 3 4 3 3 2 2 2 2 3 3
2 3 4 4 5 5 5 5 5 5 5 4 3 3 3 3 3 2 3 3 3 3 3 2 2 2 2 3 5 5 3 3 2 2 2 3 3 2
3 4 4 4 4 4 4 4 4 4 3 3 3 3 3 3 2 2 2 2 2 2 2 2 2 2 3 4 3 4 3 3 2 2 3 2 3 2
5 5 5 4 4 4 3 3 3 3 3 3 2 2 2 2 2 2 3 3 3 2 2 2 3 3 4 3 2 2 5 4 3 3 3 2 2 3
5 5 5 4 4 3 3 2 2 2 3 3 3 2 2 2 3 3 3 3 3 3 3 3 3 3 2 2 2 3 3 6 5 3 3 3 2 2
5 5 4 4 3 3 2 2 2 2 3 2 2 3 2 3 3 3 3 3 3 3 3 2 2 2 2 3 3 3 3 3 4 5 4 4 3 3
5 4 3 3 3 3 3 3 3 2 2 2 3 3 3 2 2 3 3 2 2 3 2 2 2 2 2 3 3 3 3 3 2 2 3 6 9 9
Wind_Direction
233 237 270 269 288 284 202 180 179 264 251 195 165 163 157 147 165 179 168 180 182 187 192 198 200 201 209 209 209 209 211 213 215 223 240 247 255 259
216 231 262 299 309 271 245 220 223 246 267 251 195 164 160 174 176 180 175 181 189 190 195 197 200 203 207 212 207 205 206 211 216 224 238 244 249 255
226 205 196 244 300 306 312 277 235 265 263 292 240 175 162 174 172 196 184 187 189 200 200 200 203 208 211 211 208 205 207 214 222 230 241 245 249 257
222 215 211 215 202 270 301 296 272 245 231 255 256 201 191 185 188 206 206 203 198 204 202 201 204 209 209 208 206 206 209 215 224 232 238 244 250 256
220 215 214 213 217 214 231 247 262 269 235 239 251 222 197 190 190 229 229 217 221 205 201 206 210 209 209 209 208 208 211 217 223 230 236 244 250 255
225 222 221 216 215 221 229 223 240 270 263 243 239 235 214 201 196 220 238 236 246 223 207 203 206 209 213 212 210 211 213 217 223 229 233 239 246 251
224 223 224 201 202 221 237 224 234 246 260 252 245 243 227 215 219 235 239 260 264 232 217 216 197 205 212 216 214 214 214 217 221 225 229 234 240 245
222 227 217 200 198 208 217 227 220 229 245 250 259 246 241 240 220 260 262 279 276 242 237 257 209 211 204 197 202 207 212 214 218 221 226 231 235 237
224 230 245 210 192 202 211 228 233 231 225 231 252 255 248 238 219 259 260 261 267 252 244 259 242 237 226 192 186 199 206 211 215 220 225 230 234 236
228 224 223 219 216 216 233 228 224 226 224 221 238 249 250 252 228 232 241 258 261 250 223 249 257 249 247 182 192 196 203 209 214 220 225 230 235 239
235 224 214 204 186 210 240 253 250 241 239 226 223 238 236 248 243 233 242 245 261 254 217 232 252 261 244 219 211 203 205 211 216 220 225 231 237 242
229 216 207 196 190 202 221 244 252 253 254 247 253 252 240 235 225 215 224 233 248 263 232 229 262 269 276 244 200 186 210 223 224 227 227 229 228 226
239 216 196 189 197 208 218 232 240 265 268 253 240 238 231 218 210 208 209 213 232 247 229 229 268 270 260 276 256 210 199 204 206 229 230 229 222 210
258 246 176 181 197 209 219 228 231 248 254 253 248 239 226 220 217 208 208 214 219 230 235 219 240 246 256 273 275 253 230 217 207 213 212 211 220 223
266 266 198 196 201 215 229 228 220 227 235 245 246 240 225 218 214 207 202 211 221 228 227 216 218 239 240 247 260 260 265 255 222 218 211 195 196 202
244 236 217 212 223 236 225 216 217 224 227 235 240 235 223 219 214 204 204 203 219 234 229 215 206 215 237 247 249 259 257 245 239 229 219 226 225 214
202 213 216 207 214 216 215 214 215 218 226 233 236 237 228 227 229 215 210 214 220 227 228 217 204 204 219 235 246 248 247 245 236 229 242 256 250 230
188 231 231 227 227 223 216 214 215 216 212 214 217 218 220 223 223 222 220 222 231 230 221 212 198 206 236 253 235 246 246 238 235 234 241 254 264 254
203 233 242 242 240 234 224 217 213 210 203 198 207 216 218 220 224 227 228 228 236 234 224 206 200 211 240 262 254 222 230 235 229 239 242 237 248 250
225 235 241 240 239 241 232 220 211 195 191 194 202 215 216 216 229 241 240 231 232 229 226 220 213 214 225 245 251 248 222 223 222 229 239 243 243 240
233 235 239 240 241 233 230 223 210 196 190 192 198 211 215 224 234 239 239 234 238 226 222 231 231 226 224 220 241 255 237 216 215 213 219 222 238 242
246 245 244 235 229 231 225 219 206 199 195 200 211 216 217 229 243 248 246 230 224 231 231 219 213 221 223 227 237 244 246 223 223 234 240 227 218 227
245 247 247 241 225 216 217 216 213 204 201 214 224 222 222 229 241 250 256 252 239 232 223 215 212 224 241 241 243 248 250 243 222 217 247 247 236 242